Location: Newark
(48.0000°N, 67.0000°E)
Time: 04:49:00
(UTC+00:00)

DUCHIFAT 1 - Pass Details

Date: 02 April 2020
Orbit: 586 x 604 km, 97.9° (Epoch: 27 May)

Event Time Altitude Azimuth Distance (km) Brightness Sun altitude
Rises 20:41:00 0° 15° (NNE) 2,844 ? -34.7°
Reaches altitude 10° 20:43:12 10° 18° (NNE) 1,934 ? -34.6°
Enters shadow 20:44:30 20° 22° (NNE) 1,413 ? -34.5°
